Location: Pella
(41.4080°N, 92.9160°W)
Time: 03:00:06
(UTC-05:00)

Iridium 91 - Visible Passes

Search period start: 04 May 2015 00:00
Search period end: 14 May 2015 00:00
Orbit: 776 x 779 km, 86.4° (Epoch: 03 May)

Date Brightness Start Highest point End Pass type
(mag) Time Alt. Az. Time Alt. Az. Time Alt. Az.
04 May 6.8 02:34:22 30° E 02:35:05 32° E 02:39:42 10° NNE visible
04 May 6.5 04:14:51 27° W 04:15:50 29° WNW 04:20:20 10° NNW visible
05 May 7.6 02:01:01 17° E 02:01:47 18° E 02:05:16 10° NE visible
05 May 5.7 03:41:30 50° WSW 03:42:07 53° W 03:47:14 10° N visible
06 May 5.4 03:08:08 76° SSE 03:08:33 84° E 03:13:48 10° N visible
06 May 7.5 04:48:37 10° W 04:50:09 11° WNW 04:51:29 10° NW visible
07 May 6.2 02:34:46 45° E 02:35:06 46° E 02:40:05 10° NNE visible
07 May 6.9 04:15:15 20° W 04:16:09 21° WNW 04:19:56 10° NNW visible
08 May 7.1 02:01:24 25° E 02:01:44 25° E 02:06:00 10° NNE visible
08 May 6.2 03:41:52 36° W 03:42:20 36° W 03:47:07 10° NNW visible
09 May 7.8 01:28:01 14° E 01:28:28 14° E 01:31:12 10° NE visible
09 May 5.4 03:08:29 67° W 03:08:40 68° W 03:13:53 10° N visible
10 May 5.6 02:35:05 66° E 02:35:08 67° E 02:40:20 10° N visible
10 May 7.4 04:15:34 14° W 04:16:31 14° WNW 04:19:11 10° NW visible
11 May 6.6 02:01:41 36° E 02:01:43 36° E 02:06:29 10° NNE visible
11 May 6.7 03:42:09 26° W 03:42:35 26° WNW 03:46:51 10° NNW visible
12 May 7.4 01:28:17 20° E 01:28:24 20° E 01:32:12 10° NE visible
12 May 5.9 03:08:45 46° W 03:08:49 46° W 03:13:50 10° N visible
13 May 8.0 00:54:51 11° E 00:55:10 11° ENE 00:56:27 10° ENE visible
13 May 5.4 02:35:20 84° NW 02:35:20 84° NW 02:40:28 10° N visible
